Location: Kermapucano
(48.0667°N, 3.3000°W)
Time: 20:19:23
(UTC+00:00)

Cosmos 1805 Rocket - Pass Details

Date: 29 November 2020
Orbit: 605 x 631 km, 82.5° (Epoch: 27 January)

Event Time Altitude Azimuth Distance (km) Brightness Sun altitude
Rises 06:50:48 0° 206° (SSW) 2,895 7.0 -8.1°
Reaches altitude 10° 06:53:07 10° 214° (SSW) 1,997 6.1 -7.8°
Maximum altitude 06:57:19 42° 285° (WNW) 905 4.0 -7.1°
Drops below altitude 10° 07:01:35 10° 357° (N) 2,022 5.9 -6.5°
Sets 07:03:57 0° 4° (N) 2,936 6.8 -6.1°
